| time (UTC) | temp F | wind direction | speed MPH | gust MPH | rain 1hr in | rain 24hr in | rain mn in | humidity % | barometer mb |
| 20260904001003 | 66 | 179 | 3.0 | 8.0 | 0.00 | 0.00 | 0.00 | 93 | 1014.3 |
| 20260904000503 | 66 | 175 | 3.0 | 8.0 | 0.00 | 0.00 | 0.00 | 93 | 1014.5 |
| 20260904000003 | 66 | 180 | 3.0 | 6.0 | 0.00 | 0.00 | 0.00 | 93 | 1014.6 |
| 20260903235503 | 66 | 182 | 3.0 | 9.0 | 0.00 | 0.00 | 0.00 | 93 | 1014.6 |
| 20260903235003 | 66 | 170 | 3.0 | 9.0 | 0.00 | 0.00 | 0.00 | 92 | 1014.6 |
| 20260903234503 | 66 | 174 | 3.0 | 7.0 | 0.00 | 0.00 | 0.00 | 92 | 1014.7 |
| 20260903234217 | 65 | 176 | 2.0 | 7.0 | 0.00 | 0.00 | 0.00 | 92 | 1014.8 |
| 20260903233503 | 65 | 201 | 2.0 | 8.0 | 0.00 | 0.00 | 0.00 | 92 | 1015.0 |
| 20260903233003 | 65 | 196 | 2.0 | 8.0 | 0.00 | 0.00 | 0.00 | 92 | 1015.1 |
| 20260903232503 | 65 | 192 | 2.0 | 5.0 | 0.00 | 0.00 | 0.00 | 92 | 1015.2 |
| 20260903232217 | 65 | 191 | 3.0 | 7.0 | 0.00 | 0.00 | 0.00 | 92 | 1015.2 |
| 20260903231718 | 65 | 184 | 2.0 | 7.0 | 0.00 | 0.00 | 0.00 | 92 | 1015.1 |
| 20260903231003 | 65 | 166 | 2.0 | 6.0 | 0.00 | 0.00 | 0.00 | 91 | 1015.2 |
| 20260903230503 | 65 | 164 | 3.0 | 6.0 | 0.00 | 0.00 | 0.00 | 91 | 1015.2 |
| 20260903230003 | 65 | 173 | 2.0 | 5.0 | 0.00 | 0.00 | 0.00 | 91 | 1015.2 |
| 20260903225503 | 65 | 174 | 2.0 | 5.0 | 0.00 | 0.00 | 0.00 | 91 | 1015.3 |
| 20260903225003 | 65 | 171 | 3.0 | 6.0 | 0.00 | 0.00 | 0.00 | 91 | 1015.4 |
| 20260903224503 | 65 | 172 | 3.0 | 7.0 | 0.00 | 0.00 | 0.00 | 91 | 1015.3 |
| 20260903224003 | 65 | 168 | 2.0 | 7.0 | 0.00 | 0.00 | 0.00 | 91 | 1015.4 |
| 20260903223503 | 65 | 156 | 2.0 | 6.0 | 0.00 | 0.00 | 0.00 | 90 | 1015.5 |
| 20260903223003 | 65 | 149 | 2.0 | 6.0 | 0.00 | 0.00 | 0.00 | 90 | 1015.5 |
| 20260903222503 | 65 | 148 | 2.0 | 5.0 | 0.00 | 0.00 | 0.00 | 90 | 1015.5 |
| 20260903222003 | 66 | 160 | 2.0 | 5.0 | 0.00 | 0.00 | 0.00 | 90 | 1015.6 |
| 20260903221718 | 66 | 163 | 1.0 | 5.0 | 0.00 | 0.00 | 0.00 | 90 | 1015.6 |
| 20260903221003 | 66 | 0 | 0.0 | 0.0 | 0.00 | 0.00 | 0.00 | 90 | 1015.7 |
| 20260903220503 | 66 | 0 | 0.0 | 0.0 | 0.00 | 0.00 | 0.00 | 89 | 1015.9 |
| 20260903220005 | 66 | 0 | 0.0 | 0.0 | 0.00 | 0.00 | 0.00 | 89 | 1015.9 |
| 20260903215503 | 66 | 169 | 0.0 | 2.0 | 0.00 | 0.00 | 0.00 | 89 | 1016.0 |
| 20260903215003 | 66 | 169 | 1.0 | 2.0 | 0.00 | 0.00 | 0.00 | 90 | 1016.0 |
| 20260903214503 | 66 | 169 | 1.0 | 2.0 | 0.00 | 0.00 | 0.00 | 89 | 1015.9 |
| 20260903214003 | 66 | 169 | 0.0 | 2.0 | 0.00 | 0.00 | 0.00 | 89 | 1015.9 |
| 20260903213503 | 66 | 169 | 1.0 | 4.0 | 0.00 | 0.00 | 0.00 | 89 | 1016.1 |
| 20260903213003 | 66 | 169 | 1.0 | 4.0 | 0.00 | 0.00 | 0.00 | 89 | 1016.1 |
| 20260903212503 | 66 | 166 | 1.0 | 4.0 | 0.00 | 0.00 | 0.00 | 89 | 1016.0 |
| 20260903212003 | 66 | 173 | 1.0 | 4.0 | 0.00 | 0.00 | 0.00 | 89 | 1016.1 |
| 20260903211503 | 66 | 212 | 1.0 | 4.0 | 0.00 | 0.00 | 0.00 | 88 | 1016.2 |
| 20260903211003 | 66 | 231 | 1.0 | 4.0 | 0.00 | 0.00 | 0.00 | 88 | 1016.2 |
| 20260903210717 | 66 | 218 | 1.0 | 3.0 | 0.00 | 0.00 | 0.00 | 88 | 1016.3 |
| 20260903210003 | 66 | 214 | 1.0 | 4.0 | 0.00 | 0.01 | 0.00 | 88 | 1016.4 |
| 20260903205503 | 66 | 208 | 1.0 | 4.0 | 0.00 | 0.01 | 0.00 | 87 | 1016.4 |
| 20260903205003 | 66 | 202 | 1.0 | 4.0 | 0.00 | 0.01 | 0.00 | 87 | 1016.4 |
| 20260903204503 | 66 | 217 | 1.0 | 3.0 | 0.00 | 0.01 | 0.00 | 87 | 1016.4 |
| 20260903204003 | 67 | 205 | 1.0 | 3.0 | 0.00 | 0.01 | 0.00 | 87 | 1016.3 |
| 20260903203503 | 67 | 179 | 2.0 | 5.0 | 0.00 | 0.01 | 0.00 | 86 | 1016.3 |
| 20260903203003 | 67 | 183 | 1.0 | 5.0 | 0.00 | 0.01 | 0.00 | 86 | 1016.3 |
| 20260903202503 | 67 | 200 | 1.0 | 4.0 | 0.00 | 0.01 | 0.00 | 86 | 1016.6 |
| 20260903202003 | 67 | 224 | 1.0 | 4.0 | 0.00 | 0.01 | 0.00 | 86 | 1016.5 |
| 20260903201503 | 67 | 239 | 1.0 | 4.0 | 0.00 | 0.01 | 0.00 | 85 | 1016.5 |
| 20260903201003 | 67 | 243 | 1.0 | 6.0 | 0.00 | 0.01 | 0.00 | 85 | 1016.6 |
| 20260903200717 | 67 | 238 | 2.0 | 6.0 | 0.00 | 0.01 | 0.00 | 85 | 1016.6 |
| 20260903200218 | 67 | 219 | 2.0 | 6.0 | 0.00 | 0.01 | 0.00 | 84 | 1016.5 |
| 20260903195503 | 67 | 213 | 2.0 | 7.0 | 0.00 | 0.01 | 0.00 | 84 | 1016.6 |
| 20260903195003 | 67 | 215 | 1.0 | 7.0 | 0.00 | 0.01 | 0.00 | 84 | 1016.9 |
| 20260903194503 | 67 | 230 | 1.0 | 4.0 | 0.00 | 0.01 | 0.00 | 83 | 1016.7 |
| 20260903194003 | 67 | 230 | 1.0 | 4.0 | 0.00 | 0.01 | 0.00 | 83 | 1016.6 |
| 20260903193503 | 67 | 228 | 0.0 | 3.0 | 0.00 | 0.01 | 0.00 | 82 | 1016.6 |
| 20260903193003 | 67 | 228 | 1.0 | 3.0 | 0.00 | 0.01 | 0.00 | 82 | 1016.6 |
| 20260903192716 | 67 | 228 | 1.0 | 3.0 | 0.00 | 0.01 | 0.00 | 82 | 1016.7 |
| 20260903192003 | 68 | 226 | 1.0 | 3.0 | 0.00 | 0.01 | 0.00 | 81 | 1016.6 |
| 20260903191503 | 68 | 230 | 1.0 | 4.0 | 0.00 | 0.01 | 0.00 | 81 | 1016.8 |
| 20260903191004 | 68 | 225 | 2.0 | 4.0 | 0.00 | 0.01 | 0.00 | 80 | 1016.7 |
| 20260903190503 | 68 | 232 | 2.0 | 5.0 | 0.00 | 0.01 | 0.00 | 80 | 1016.5 |
| 20260903190003 | 68 | 240 | 2.0 | 5.0 | 0.00 | 0.01 | 0.00 | 79 | 1016.6 |
| 20260903185716 | 68 | 230 | 2.0 | 4.0 | 0.00 | 0.01 | 0.00 | 79 | 1016.8 |
| 20260903185003 | 69 | 229 | 2.0 | 6.0 | 0.00 | 0.01 | 0.00 | 79 | 1016.6 |
| 20260903184503 | 69 | 236 | 2.0 | 6.0 | 0.00 | 0.01 | 0.00 | 78 | 1016.6 |
| 20260903184003 | 69 | 230 | 2.0 | 5.0 | 0.00 | 0.01 | 0.00 | 77 | 1016.7 |
| 20260903183503 | 70 | 241 | 2.0 | 5.0 | 0.00 | 0.01 | 0.00 | 76 | 1016.6 |
| 20260903183003 | 70 | 239 | 2.0 | 5.0 | 0.00 | 0.01 | 0.00 | 76 | 1016.5 |
| 20260903182503 | 70 | 236 | 3.0 | 5.0 | 0.00 | 0.01 | 0.00 | 75 | 1016.5 |
| 20260903182003 | 70 | 242 | 3.0 | 8.0 | 0.00 | 0.01 | 0.00 | 75 | 1016.4 |
| 20260903181503 | 70 | 246 | 3.0 | 8.0 | 0.00 | 0.01 | 0.00 | 74 | 1016.6 |
| 20260903181003 | 70 | 249 | 3.0 | 8.0 | 0.00 | 0.01 | 0.00 | 74 | 1016.8 |
| 20260903180504 | 71 | 247 | 4.0 | 8.0 | 0.00 | 0.01 | 0.00 | 74 | 1016.6 |
| 20260903180003 | 71 | 248 | 4.0 | 8.0 | 0.00 | 0.01 | 0.00 | 73 | 1016.8 |
| 20260903175503 | 71 | 249 | 4.0 | 8.0 | 0.00 | 0.01 | 0.00 | 73 | 1016.9 |
| 20260903175003 | 71 | 241 | 4.0 | 8.0 | 0.00 | 0.01 | 0.00 | 72 | 1016.6 |
| 20260903174503 | 71 | 249 | 4.0 | 10.0 | 0.00 | 0.01 | 0.00 | 72 | 1016.6 |
| 20260903174003 | 72 | 256 | 6.0 | 11.0 | 0.00 | 0.01 | 0.00 | 71 | 1016.8 |
| 20260903173718 | 72 | 255 | 6.0 | 16.0 | 0.00 | 0.01 | 0.00 | 71 | 1016.8 |
| 20260903173003 | 72 | 243 | 5.0 | 16.0 | 0.00 | 0.01 | 0.00 | 70 | 1016.5 |
| 20260903172503 | 73 | 239 | 5.0 | 13.0 | 0.00 | 0.01 | 0.00 | 71 | 1016.5 |
| 20260903172003 | 73 | 244 | 4.0 | 13.0 | 0.00 | 0.01 | 0.00 | 70 | 1016.2 |
| 20260903171503 | 73 | 258 | 4.0 | 11.0 | 0.00 | 0.01 | 0.00 | 71 | 1016.2 |
| 20260903171004 | 73 | 271 | 5.0 | 12.0 | 0.00 | 0.01 | 0.00 | 70 | 1016.1 |
| 20260903170503 | 74 | 271 | 5.0 | 12.0 | 0.00 | 0.01 | 0.00 | 70 | 1016.1 |
| 20260903170003 | 74 | 264 | 5.0 | 11.0 | 0.00 | 0.01 | 0.00 | 70 | 1016.1 |
| 20260903165503 | 74 | 261 | 4.0 | 11.0 | 0.00 | 0.01 | 0.00 | 71 | 1016.1 |
| 20260903165003 | 73 | 268 | 5.0 | 11.0 | 0.00 | 0.01 | 0.00 | 71 | 1016.3 |
| 20260903164503 | 73 | 273 | 4.0 | 9.0 | 0.00 | 0.01 | 0.00 | 71 | 1016.4 |
| 20260903164003 | 73 | 279 | 4.0 | 9.0 | 0.00 | 0.01 | 0.00 | 71 | 1016.3 |
| 20260903163503 | 73 | 279 | 4.0 | 9.0 | 0.00 | 0.01 | 0.00 | 71 | 1016.4 |
| 20260903163003 | 73 | 276 | 6.0 | 12.0 | 0.00 | 0.01 | 0.00 | 70 | 1016.5 |
| 20260903162503 | 73 | 274 | 6.0 | 12.0 | 0.00 | 0.01 | 0.00 | 70 | 1016.5 |
| 20260903162003 | 74 | 274 | 6.0 | 15.0 | 0.00 | 0.01 | 0.00 | 68 | 1016.4 |
| 20260903161503 | 74 | 272 | 6.0 | 15.0 | 0.00 | 0.01 | 0.00 | 68 | 1016.3 |
| 20260903161003 | 75 | 266 | 7.0 | 16.0 | 0.00 | 0.01 | 0.00 | 66 | 1016.3 |
| 20260903160503 | 75 | 271 | 6.0 | 16.0 | 0.00 | 0.01 | 0.00 | 66 | 1016.2 |
| 20260903160003 | 75 | 277 | 5.0 | 11.0 | 0.00 | 0.01 | 0.00 | 67 | 1016.2 |
| 20260903155503 | 74 | 274 | 4.0 | 9.0 | 0.00 | 0.01 | 0.00 | 68 | 1016.3 |
| 20260903155003 | 74 | 263 | 5.0 | 15.0 | 0.00 | 0.01 | 0.00 | 67 | 1016.4 |
| 20260903154503 | 75 | 255 | 7.0 | 15.0 | 0.00 | 0.01 | 0.00 | 67 | 1016.3 |
| 20260903154003 | 75 | 267 | 6.0 | 13.0 | 0.00 | 0.01 | 0.00 | 68 | 1016.1 |
| 20260903153503 | 75 | 283 | 6.0 | 13.0 | 0.00 | 0.01 | 0.00 | 68 | 1016.3 |
| 20260903153004 | 76 | 281 | 6.0 | 12.0 | 0.00 | 0.01 | 0.00 | 67 | 1016.2 |
| 20260903152504 | 76 | 277 | 7.0 | 14.0 | 0.00 | 0.01 | 0.00 | 67 | 1016.2 |
| 20260903152003 | 76 | 275 | 8.0 | 16.0 | 0.00 | 0.01 | 0.00 | 67 | 1016.2 |
| 20260903151503 | 75 | 274 | 9.0 | 16.0 | 0.00 | 0.01 | 0.00 | 65 | 1016.1 |
| 20260903151003 | 76 | 277 | 8.0 | 16.0 | 0.00 | 0.01 | 0.00 | 64 | 1016.1 |
| 20260903150503 | 76 | 280 | 9.0 | 17.0 | 0.00 | 0.01 | 0.00 | 64 | 1016.0 |
| 20260903150003 | 76 | 278 | 9.0 | 17.0 | 0.00 | 0.01 | 0.00 | 63 | 1016.0 |
| 20260903145503 | 77 | 274 | 8.0 | 24.0 | 0.00 | 0.01 | 0.00 | 63 | 1016.0 |
| 20260903145003 | 77 | 267 | 8.0 | 24.0 | 0.00 | 0.01 | 0.00 | 63 | 1016.1 |
| 20260903144503 | 76 | 269 | 9.0 | 16.0 | 0.00 | 0.01 | 0.00 | 65 | 1016.1 |
| 20260903144003 | 76 | 275 | 9.0 | 16.0 | 0.00 | 0.01 | 0.00 | 65 | 1016.0 |
| 20260903143719 | 76 | 280 | 10.0 | 16.0 | 0.00 | 0.01 | 0.00 | 65 | 1016.0 |
| 20260903143003 | 76 | 280 | 9.0 | 17.0 | 0.00 | 0.01 | 0.00 | 68 | 1016.0 |
| 20260903142503 | 75 | 285 | 8.0 | 17.0 | 0.00 | 0.01 | 0.00 | 69 | 1016.1 |
| 20260903142003 | 75 | 281 | 7.0 | 14.0 | 0.00 | 0.01 | 0.00 | 69 | 1016.2 |
| 20260903141503 | 75 | 266 | 6.0 | 12.0 | 0.00 | 0.01 | 0.00 | 70 | 1016.1 |
| 20260903141003 | 74 | 260 | 6.0 | 13.0 | 0.00 | 0.01 | 0.00 | 69 | 1016.1 |
| 20260903140503 | 74 | 257 | 6.0 | 16.0 | 0.00 | 0.01 | 0.00 | 69 | 1016.1 |
| 20260903140003 | 74 | 264 | 7.0 | 16.0 | 0.00 | 0.01 | 0.00 | 69 | 1015.9 |
| 20260903135503 | 74 | 272 | 8.0 | 18.0 | 0.00 | 0.01 | 0.00 | 68 | 1015.8 |
| 20260903135005 | 74 | 266 | 8.0 | 18.0 | 0.00 | 0.01 | 0.00 | 68 | 1015.9 |
| 20260903134503 | 75 | 262 | 8.0 | 17.0 | 0.00 | 0.01 | 0.00 | 68 | 1015.9 |
| 20260903134003 | 74 | 267 | 9.0 | 17.0 | 0.00 | 0.01 | 0.00 | 69 | 1015.8 |
| 20260903133503 | 74 | 276 | 7.0 | 16.0 | 0.00 | 0.01 | 0.00 | 71 | 1015.8 |
| 20260903133003 | 74 | 283 | 5.0 | 16.0 | 0.00 | 0.01 | 0.00 | 74 | 1015.9 |
| 20260903132716 | 73 | 277 | 6.0 | 14.0 | 0.00 | 0.01 | 0.00 | 74 | 1015.9 |
| 20260903132003 | 73 | 276 | 7.0 | 13.0 | 0.00 | 0.01 | 0.00 | 74 | 1015.9 |
| 20260903131503 | 73 | 279 | 6.0 | 13.0 | 0.00 | 0.01 | 0.00 | 74 | 1015.9 |
| 20260903131003 | 73 | 275 | 5.0 | 13.0 | 0.00 | 0.01 | 0.00 | 75 | 1015.7 |
| 20260903130503 | 73 | 278 | 6.0 | 12.0 | 0.00 | 0.01 | 0.00 | 75 | 1015.7 |
| 20260903130003 | 73 | 274 | 7.0 | 15.0 | 0.00 | 0.01 | 0.00 | 75 | 1015.6 |
| 20260903125503 | 73 | 262 | 6.0 | 13.0 | 0.00 | 0.01 | 0.00 | 74 | 1015.8 |
| 20260903125003 | 73 | 253 | 6.0 | 13.0 | 0.00 | 0.01 | 0.00 | 74 | 1015.7 |
| 20260903124503 | 73 | 253 | 6.0 | 13.0 | 0.00 | 0.01 | 0.00 | 74 | 1015.8 |
| 20260903124217 | 73 | 254 | 8.0 | 18.0 | 0.00 | 0.01 | 0.00 | 74 | 1015.7 |
| 20260903123503 | 74 | 247 | 9.0 | 18.0 | 0.00 | 0.01 | 0.00 | 72 | 1015.7 |
| 20260903123003 | 74 | 246 | 7.0 | 17.0 | 0.00 | 0.01 | 0.00 | 73 | 1015.6 |
| 20260903122503 | 74 | 251 | 5.0 | 12.0 | 0.00 | 0.01 | 0.00 | 75 | 1015.6 |
| 20260903122003 | 74 | 253 | 5.0 | 12.0 | 0.00 | 0.01 | 0.00 | 75 | 1015.5 |
| 20260903121718 | 74 | 256 | 5.0 | 15.0 | 0.00 | 0.01 | 0.00 | 75 | 1015.5 |
| 20260903121217 | 74 | 248 | 7.0 | 15.0 | 0.00 | 0.01 | 0.00 | 75 | 1015.6 |
| 20260903120503 | 74 | 252 | 8.0 | 16.0 | 0.00 | 0.01 | 0.00 | 74 | 1015.5 |
| 20260903120003 | 74 | 254 | 8.0 | 18.0 | 0.00 | 0.01 | 0.00 | 75 | 1015.5 |
| 20260903115503 | 74 | 242 | 8.0 | 18.0 | 0.00 | 0.01 | 0.00 | 75 | 1015.6 |
| 20260903115217 | 74 | 235 | 7.0 | 18.0 | 0.00 | 0.01 | 0.00 | 76 | 1015.6 |
| 20260903114503 | 73 | 233 | 7.0 | 16.0 | 0.00 | 0.01 | 0.00 | 78 | 1015.5 |
| 20260903114003 | 73 | 228 | 7.0 | 16.0 | 0.00 | 0.01 | 0.00 | 77 | 1015.4 |
| 20260903113503 | 73 | 247 | 7.0 | 16.0 | 0.00 | 0.01 | 0.00 | 78 | 1015.5 |
| 20260903113003 | 73 | 249 | 7.0 | 16.0 | 0.00 | 0.01 | 0.00 | 80 | 1015.4 |
| 20260903112503 | 72 | 241 | 6.0 | 16.0 | 0.00 | 0.01 | 0.00 | 83 | 1015.5 |
| 20260903112003 | 71 | 247 | 5.0 | 14.0 | 0.00 | 0.01 | 0.00 | 86 | 1015.6 |
| 20260903111503 | 70 | 240 | 4.0 | 12.0 | 0.00 | 0.01 | 0.00 | 86 | 1015.5 |
| 20260903111003 | 70 | 235 | 3.0 | 12.0 | 0.00 | 0.01 | 0.00 | 86 | 1015.6 |
| 20260903110503 | 70 | 235 | 4.0 | 10.0 | 0.00 | 0.01 | 0.00 | 86 | 1015.6 |
| 20260903110003 | 70 | 229 | 5.0 | 10.0 | 0.00 | 0.01 | 0.00 | 85 | 1015.6 |
| 20260903105503 | 70 | 231 | 4.0 | 10.0 | 0.00 | 0.01 | 0.00 | 85 | 1015.7 |
| 20260903105003 | 70 | 221 | 4.0 | 9.0 | 0.00 | 0.01 | 0.00 | 85 | 1015.6 |
| 20260903104503 | 71 | 227 | 4.0 | 11.0 | 0.00 | 0.01 | 0.00 | 86 | 1015.7 |
| 20260903104003 | 70 | 237 | 6.0 | 11.0 | 0.00 | 0.01 | 0.00 | 85 | 1015.8 |
| 20260903103503 | 70 | 227 | 7.0 | 13.0 | 0.00 | 0.01 | 0.00 | 86 | 1015.8 |
| 20260903103003 | 70 | 227 | 6.0 | 13.0 | 0.00 | 0.01 | 0.00 | 89 | 1015.8 |
| 20260903102503 | 69 | 234 | 6.0 | 15.0 | 0.00 | 0.01 | 0.00 | 90 | 1015.8 |
| 20260903102003 | 68 | 231 | 7.0 | 15.0 | 0.00 | 0.01 | 0.00 | 91 | 1016.0 |
| 20260903101503 | 68 | 227 | 5.0 | 12.0 | 0.00 | 0.01 | 0.00 | 92 | 1016.0 |
| 20260903101003 | 68 | 224 | 4.0 | 10.0 | 0.00 | 0.01 | 0.00 | 93 | 1016.1 |
| 20260903100503 | 67 | 213 | 5.0 | 11.0 | 0.00 | 0.01 | 0.00 | 93 | 1016.0 |
| 20260903100003 | 67 | 206 | 5.0 | 11.0 | 0.00 | 0.01 | 0.00 | 93 | 1015.8 |
| 20260903095503 | 67 | 206 | 4.0 | 11.0 | 0.00 | 0.01 | 0.00 | 93 | 1015.8 |
| 20260903095218 | 67 | 217 | 5.0 | 11.0 | 0.00 | 0.01 | 0.00 | 92 | 1015.8 |
| 20260903094503 | 67 | 226 | 4.0 | 12.0 | 0.00 | 0.01 | 0.00 | 91 | 1015.7 |
| 20260903094218 | 67 | 217 | 4.0 | 12.0 | 0.00 | 0.01 | 0.00 | 91 | 1015.6 |
| 20260903093503 | 67 | 214 | 4.0 | 11.0 | 0.00 | 0.01 | 0.00 | 90 | 1015.7 |
| 20260903093003 | 67 | 210 | 4.0 | 12.0 | 0.00 | 0.01 | 0.00 | 89 | 1015.7 |
| 20260903092503 | 67 | 203 | 5.0 | 12.0 | 0.00 | 0.01 | 0.00 | 89 | 1015.7 |
| 20260903092003 | 67 | 208 | 5.0 | 11.0 | 0.00 | 0.01 | 0.00 | 89 | 1015.7 |
| 20260903091503 | 67 | 202 | 5.0 | 11.0 | 0.00 | 0.01 | 0.00 | 89 | 1015.6 |
| 20260903091003 | 68 | 195 | 4.0 | 13.0 | 0.00 | 0.01 | 0.00 | 89 | 1015.5 |
| 20260903090503 | 68 | 207 | 4.0 | 13.0 | 0.00 | 0.01 | 0.00 | 88 | 1015.5 |
| 20260903090003 | 68 | 218 | 5.0 | 13.0 | 0.00 | 0.01 | 0.00 | 88 | 1015.4 |
| 20260903085503 | 68 | 223 | 6.0 | 14.0 | 0.00 | 0.01 | 0.00 | 88 | 1015.4 |
| 20260903085003 | 68 | 215 | 5.0 | 14.0 | 0.00 | 0.01 | 0.00 | 87 | 1015.6 |
| 20260903084503 | 68 | 222 | 6.0 | 14.0 | 0.00 | 0.01 | 0.00 | 86 | 1015.4 |
| 20260903084003 | 68 | 228 | 6.0 | 16.0 | 0.00 | 0.01 | 0.00 | 85 | 1015.6 |
| 20260903083716 | 68 | 222 | 6.0 | 16.0 | 0.00 | 0.01 | 0.00 | 85 | 1015.6 |
| 20260903083003 | 68 | 224 | 7.0 | 14.0 | 0.00 | 0.01 | 0.00 | 85 | 1015.5 |
| 20260903082503 | 68 | 227 | 8.0 | 18.0 | 0.00 | 0.01 | 0.00 | 85 | 1015.4 |
| 20260903082003 | 68 | 214 | 7.0 | 18.0 | 0.00 | 0.01 | 0.00 | 85 | 1015.4 |
| 20260903081716 | 68 | 201 | 6.0 | 19.0 | 0.00 | 0.01 | 0.00 | 85 | 1015.3 |
| 20260903081003 | 68 | 192 | 5.0 | 19.0 | 0.00 | 0.01 | 0.00 | 85 | 1015.2 |
| 20260903080503 | 67 | 206 | 5.0 | 10.0 | 0.00 | 0.01 | 0.00 | 85 | 1015.3 |
| 20260903080217 | 67 | 219 | 5.0 | 12.0 | 0.00 | 0.01 | 0.00 | 85 | 1015.4 |
| 20260903075718 | 67 | 222 | 5.0 | 13.0 | 0.00 | 0.01 | 0.00 | 85 | 1015.5 |
| 20260903075003 | 67 | 207 | 4.0 | 12.0 | 0.00 | 0.01 | 0.00 | 85 | 1015.5 |
| 20260903074505 | 67 | 201 | 5.0 | 12.0 | 0.00 | 0.01 | 0.00 | 85 | 1015.5 |
| 20260903074003 | 66 | 213 | 4.0 | 13.0 | 0.00 | 0.01 | 0.00 | 85 | 1015.5 |
| 20260903073503 | 66 | 207 | 4.0 | 13.0 | 0.00 | 0.01 | 0.00 | 85 | 1015.5 |
| 20260903073003 | 66 | 187 | 4.0 | 9.0 | 0.00 | 0.01 | 0.00 | 85 | 1015.3 |
| 20260903072503 | 66 | 191 | 5.0 | 12.0 | 0.00 | 0.01 | 0.00 | 86 | 1015.4 |
| 20260903072003 | 66 | 192 | 4.0 | 12.0 | 0.00 | 0.01 | 0.00 | 86 | 1015.4 |
| 20260903071718 | 66 | 200 | 4.0 | 11.0 | 0.00 | 0.01 | 0.00 | 86 | 1015.5 |
| 20260903071003 | 65 | 195 | 5.0 | 11.0 | 0.00 | 0.01 | 0.00 | 86 | 1015.5 |
| 20260903070503 | 65 | 192 | 4.0 | 11.0 | 0.00 | 0.01 | 0.00 | 86 | 1015.7 |
| 20260903070003 | 65 | 197 | 4.0 | 8.0 | 0.00 | 0.01 | 0.00 | 86 | 1015.7 |
| 20260903065718 | 65 | 199 | 4.0 | 8.0 | 0.00 | 0.01 | 0.00 | 85 | 1015.7 |
| 20260903065005 | 65 | 183 | 3.0 | 10.0 | 0.00 | 0.01 | 0.00 | 85 | 1015.6 |
| 20260903064503 | 65 | 182 | 4.0 | 10.0 | 0.00 | 0.01 | 0.00 | 84 | 1015.5 |
| 20260903064003 | 65 | 173 | 4.0 | 10.0 | 0.00 | 0.01 | 0.00 | 84 | 1015.5 |
| 20260903063503 | 65 | 175 | 3.0 | 9.0 | 0.00 | 0.01 | 0.00 | 84 | 1015.6 |
| 20260903063003 | 65 | 195 | 3.0 | 13.0 | 0.00 | 0.01 | 0.00 | 84 | 1015.6 |
| 20260903062503 | 65 | 198 | 3.0 | 13.0 | 0.00 | 0.01 | 0.00 | 84 | 1015.7 |
| 20260903062003 | 65 | 192 | 3.0 | 8.0 | 0.00 | 0.01 | 0.00 | 84 | 1015.7 |
| 20260903061503 | 64 | 194 | 3.0 | 8.0 | 0.00 | 0.01 | 0.00 | 84 | 1015.7 |
| 20260903061216 | 64 | 191 | 3.0 | 8.0 | 0.00 | 0.01 | 0.00 | 84 | 1015.7 |
| 20260903060503 | 64 | 186 | 3.0 | 9.0 | 0.00 | 0.01 | 0.00 | 85 | 1015.8 |
| 20260903060216 | 64 | 188 | 3.0 | 9.0 | 0.00 | 0.01 | 0.00 | 85 | 1015.8 |
| 20260903055503 | 64 | 188 | 3.0 | 9.0 | 0.00 | 0.01 | 0.00 | 85 | 1015.8 |
| 20260903055003 | 64 | 186 | 3.0 | 9.0 | 0.00 | 0.01 | 0.00 | 86 | 1015.8 |
| 20260903054503 | 64 | 177 | 3.0 | 8.0 | 0.00 | 0.01 | 0.00 | 86 | 1015.8 |
| 20260903054003 | 64 | 171 | 3.0 | 9.0 | 0.00 | 0.01 | 0.00 | 86 | 1015.8 |
| 20260903053503 | 64 | 169 | 4.0 | 9.0 | 0.00 | 0.01 | 0.00 | 86 | 1015.8 |
| 20260903053003 | 64 | 171 | 4.0 | 9.0 | 0.00 | 0.01 | 0.00 | 86 | 1015.7 |
| 20260903052717 | 64 | 179 | 4.0 | 9.0 | 0.00 | 0.01 | 0.00 | 87 | 1015.7 |
| 20260903052003 | 64 | 168 | 5.0 | 11.0 | 0.00 | 0.01 | 0.00 | 87 | 1015.7 |
| 20260903051717 | 63 | 164 | 5.0 | 11.0 | 0.00 | 0.01 | 0.00 | 88 | 1015.6 |
| 20260903051220 | 63 | 166 | 4.0 | 8.0 | 0.00 | 0.01 | 0.00 | 88 | 1015.5 |
| 20260903050503 | 63 | 171 | 3.0 | 9.0 | 0.00 | 0.01 | 0.00 | 89 | 1015.5 |
| 20260903050003 | 63 | 165 | 2.0 | 9.0 | 0.00 | 0.01 | 0.00 | 89 | 1015.5 |
| 20260903045503 | 63 | 164 | 3.0 | 7.0 | 0.00 | 0.01 | 0.00 | 89 | 1015.7 |
| 20260903045003 | 63 | 161 | 3.0 | 8.0 | 0.00 | 0.01 | 0.00 | 89 | 1015.6 |
| 20260903044503 | 63 | 162 | 3.0 | 9.0 | 0.00 | 0.01 | 0.00 | 88 | 1015.7 |
| 20260903044003 | 64 | 174 | 4.0 | 9.0 | 0.00 | 0.01 | 0.00 | 88 | 1015.6 |
| 20260903043503 | 64 | 174 | 4.0 | 8.0 | 0.00 | 0.01 | 0.00 | 87 | 1015.8 |
| 20260903043218 | 64 | 172 | 4.0 | 8.0 | 0.00 | 0.01 | 0.00 | 87 | 1016.0 |
| 20260903042503 | 64 | 175 | 4.0 | 10.0 | 0.00 | 0.01 | 0.00 | 86 | 1015.8 |
| 20260903042218 | 64 | 179 | 4.0 | 13.0 | 0.00 | 0.01 | 0.00 | 86 | 1015.8 |
| 20260903041503 | 64 | 183 | 4.0 | 13.0 | 0.00 | 0.01 | 0.00 | 86 | 1015.7 |
| 20260903041003 | 64 | 178 | 4.0 | 11.0 | 0.00 | 0.01 | 0.00 | 86 | 1015.9 |
| 20260903040503 | 63 | 176 | 4.0 | 10.0 | 0.00 | 0.01 | 0.00 | 86 | 1015.8 |
| 20260903040003 | 63 | 175 | 4.0 | 10.0 | 0.00 | 0.01 | 0.00 | 86 | 1015.9 |
| 20260903035503 | 63 | 173 | 4.0 | 10.0 | 0.00 | 0.01 | 0.00 | 86 | 1015.9 |
| 20260903035003 | 63 | 167 | 4.0 | 10.0 | 0.00 | 0.01 | 0.00 | 86 | 1016.0 |
| 20260903034503 | 63 | 161 | 3.0 | 7.0 | 0.00 | 0.01 | 0.00 | 86 | 1016.0 |
| 20260903034003 | 63 | 156 | 3.0 | 6.0 | 0.00 | 0.01 | 0.00 | 86 | 1016.2 |
| 20260903033504 | 63 | 156 | 3.0 | 8.0 | 0.00 | 0.01 | 0.00 | 86 | 1016.1 |
| 20260903033003 | 63 | 159 | 4.0 | 8.0 | 0.00 | 0.01 | 0.00 | 86 | 1016.1 |
| 20260903032716 | 63 | 159 | 4.0 | 8.0 | 0.00 | 0.01 | 0.00 | 86 | 1016.1 |
| 20260903032003 | 63 | 158 | 4.0 | 9.0 | 0.00 | 0.01 | 0.00 | 86 | 1016.2 |
| 20260903031503 | 63 | 157 | 3.0 | 8.0 | 0.00 | 0.01 | 0.00 | 86 | 1016.3 |
| 20260903031003 | 63 | 162 | 4.0 | 9.0 | 0.00 | 0.01 | 0.00 | 87 | 1016.4 |
| 20260903030503 | 63 | 159 | 4.0 | 9.0 | 0.00 | 0.01 | 0.00 | 87 | 1016.5 |
| 20260903030217 | 63 | 159 | 4.0 | 8.0 | 0.00 | 0.01 | 0.00 | 87 | 1016.5 |
| 20260903025503 | 63 | 160 | 4.0 | 10.0 | 0.00 | 0.01 | 0.00 | 87 | 1016.5 |
| 20260903025005 | 63 | 171 | 3.0 | 10.0 | 0.00 | 0.01 | 0.00 | 87 | 1016.5 |
| 20260903024503 | 63 | 171 | 3.0 | 10.0 | 0.00 | 0.01 | 0.00 | 87 | 1016.5 |
| 20260903024003 | 63 | 166 | 3.0 | 8.0 | 0.00 | 0.01 | 0.00 | 87 | 1016.6 |
| 20260903023503 | 63 | 170 | 4.0 | 7.0 | 0.00 | 0.01 | 0.00 | 87 | 1016.6 |
| 20260903023003 | 63 | 168 | 4.0 | 9.0 | 0.00 | 0.01 | 0.00 | 87 | 1016.7 |
| 20260903022503 | 62 | 163 | 4.0 | 11.0 | 0.00 | 0.01 | 0.00 | 87 | 1016.6 |
| 20260903022003 | 62 | 166 | 4.0 | 11.0 | 0.00 | 0.01 | 0.00 | 88 | 1016.7 |
| 20260903021503 | 62 | 165 | 4.0 | 10.0 | 0.00 | 0.01 | 0.00 | 88 | 1016.9 |
| 20260903021003 | 62 | 159 | 4.0 | 8.0 | 0.00 | 0.01 | 0.00 | 88 | 1016.9 |
| 20260903020503 | 62 | 154 | 3.0 | 7.0 | 0.00 | 0.01 | 0.00 | 89 | 1016.9 |
| 20260903020217 | 62 | 158 | 3.0 | 8.0 | 0.00 | 0.01 | 0.00 | 89 | 1016.9 |
| 20260903015503 | 62 | 166 | 4.0 | 8.0 | 0.00 | 0.01 | 0.00 | 89 | 1017.0 |
| 20260903015003 | 62 | 164 | 4.0 | 8.0 | 0.00 | 0.01 | 0.00 | 89 | 1017.1 |
| 20260903014718 | 62 | 162 | 3.0 | 8.0 | 0.00 | 0.01 | 0.00 | 89 | 1017.1 |
| 20260903014003 | 62 | 164 | 3.0 | 7.0 | 0.00 | 0.01 | 0.00 | 89 | 1017.1 |
| 20260903013503 | 62 | 170 | 4.0 | 10.0 | 0.00 | 0.01 | 0.00 | 88 | 1017.2 |
| 20260903013003 | 63 | 169 | 5.0 | 10.0 | 0.00 | 0.01 | 0.00 | 88 | 1017.2 |
| 20260903012503 | 63 | 176 | 5.0 | 13.0 | 0.00 | 0.01 | 0.00 | 87 | 1017.3 |
| 20260903012003 | 63 | 174 | 5.0 | 13.0 | 0.00 | 0.01 | 0.00 | 87 | 1017.5 |
| 20260903011718 | 63 | 166 | 5.0 | 13.0 | 0.00 | 0.01 | 0.00 | 86 | 1017.5 |
| 20260903011003 | 63 | 165 | 4.0 | 13.0 | 0.00 | 0.01 | 0.00 | 86 | 1017.7 |
| 20260903010503 | 63 | 168 | 4.0 | 9.0 | 0.00 | 0.01 | 0.00 | 86 | 1017.8 |
| 20260903010003 | 63 | 170 | 3.0 | 9.0 | 0.00 | 0.01 | 0.00 | 85 | 1017.7 |
| 20260903005503 | 64 | 180 | 3.0 | 7.0 | 0.00 | 0.01 | 0.00 | 85 | 1017.6 |
| 20260903005219 | 64 | 182 | 3.0 | 7.0 | 0.00 | 0.01 | 0.00 | 85 | 1017.7 |
| 20260903004718 | 64 | 184 | 4.0 | 8.0 | 0.00 | 0.01 | 0.00 | 84 | 1017.7 |
| 20260903004003 | 64 | 184 | 3.0 | 8.0 | 0.00 | 0.01 | 0.00 | 84 | 1017.8 |
| 20260903003503 | 64 | 197 | 3.0 | 9.0 | 0.00 | 0.01 | 0.00 | 84 | 1017.7 |
| 20260903003003 | 64 | 205 | 4.0 | 13.0 | 0.00 | 0.01 | 0.00 | 84 | 1017.7 |
| 20260903002503 | 64 | 220 | 4.0 | 13.0 | 0.00 | 0.01 | 0.00 | 83 | 1017.7 |
| 20260903002216 | 64 | 228 | 3.0 | 13.0 | 0.00 | 0.01 | 0.00 | 82 | 1017.9 |
| 20260903001503 | 64 | 197 | 3.0 | 7.0 | 0.00 | 0.01 | 0.00 | 82 | 1017.9 |